Terminal Aerodrome Forecast
Issued by NWS Quad Cities IA IL

Home | Current Version | Previous Version | Text Only | Print | Product List | Glossary On
Versions: 1 2 3 4 5 6 7 8 9 10 11 12 13 14 15 16 17 18 19 20 21 22 23 24 25 26 27 28
000
FTUS43 KDVN 252000 AAE
TAFMLI
TAF AMD
KMLI 252044Z 2521/2618 18007KT P6SM SCT030
      TEMPO 2521/2523 P6SM BKN030
     FM260200 14005KT P6SM SCT040
     FM260900 17006KT 6SM BR BKN060
     FM261300 20005KT 6SM BR BKN060=

USA.gov is the U.S. government's official web portal to all federal, state and local government web resources and services.